Weather History for Curtin, WE

Change the Weather History Date:

Monday, May 13, 2013

  Actual Average Record
Temperature  
Mean Temperature 82 °F -  
Max Temperature 91 °F - - ()
Min Temperature 73 °F - - ()
Cooling Degree Days 17    
Growing Degree Days 32 (Base 50)    
Moisture  
Dew Point 61 °F    
Average Humidity 50    
Maximum Humidity 73    
Minimum Humidity 25    
Precipitation  
Precipitation 0.00 in - - ()
Sea Level Pressure  
Sea Level Pressure 29.93 in    
Wind  
Wind Speed 9 mph ()    
Max Wind Speed 15 mph    
Max Gust Speed -    
T = Trace of Precipitation, MM = Missing Value Source: Averaged Metar Reports

Daily Weather History Graph

Daily Weather History Graph

Search for Another Location

Airport:

Trip Planner

Search our weather history database for the weather conditions in past years. The results will help you decide how hot, cold, wet, or windy it might be!

Date:

Astronomy

May. 13, 2013 Rise Set
Actual Time 6:01 AM WST 5:20 PM WST
Civil Twilight 5:38 AM WST 5:43 PM WST
Nautical Twilight 5:12 AM WST 6:09 PM WST
Astronomical Twilight 4:46 AM WST 6:35 PM WST
Moon 8:28 AM WST (5/13) 7:56 PM WST (5/13)
Length of Visible Light 12h 04m
Length of Day
11h 18m
Waxing Crescent, 9% of the Moon is Illuminated
May 13
Waxing Crescent
May 18
First Quarter
May 25
Full
Jun 1
Last Quarter
Jun 8
New

Hourly Weather History & Observations

Time (WST) Temp. Heat Index Dew Point Humidity Pressure Visibility Wind Dir Wind Speed Gust Speed Precip Events Conditions
12:00 AM 79 °F - 60 °F 43% 29.95 in - SE 6.9 mph - -  
12:00 AM 78.8 °F - 60.8 °F 54% 29.95 in - SE 6.9 mph - N/A   Unknown
1:00 AM 78.8 °F - 64.4 °F 61% 29.95 in - SE 10.4 mph - N/A   Unknown
2:00 AM 77.0 °F - 64.4 °F 65% 29.95 in - SE 11.5 mph - N/A   Unknown
3:00 AM 76 °F - 64 °F 57% 29.94 in - SE 11.5 mph - -  
3:00 AM 77.0 °F - 64.4 °F 65% 29.95 in - SE 11.5 mph - N/A   Unknown
4:00 AM 75.2 °F - 64.4 °F 69% 29.95 in - SE 10.4 mph - N/A   Unknown
5:00 AM 73.4 °F - 64.4 °F 73% 29.95 in - SE 9.2 mph - N/A   Unknown
6:00 AM 73 °F - 64 °F 65% 29.97 in - SE 9.2 mph - -  
6:00 AM 73.4 °F - 64.4 °F 73% 29.98 in - SE 9.2 mph - N/A   Unknown
7:00 AM 73.4 °F - 64.4 °F 73% 29.98 in - SE 11.5 mph - N/A   Unknown
8:00 AM 77.0 °F - 64.4 °F 65% 30.01 in - SE 15.0 mph - N/A   Unknown
9:00 AM 80 °F - 63 °F 46% 30.00 in - ESE 13.8 mph - -  
9:00 AM 80.6 °F 81.8 °F 62.6 °F 54% 30.01 in - ESE 13.8 mph - N/A   Unknown
10:00 AM 82.4 °F 83.4 °F 62.6 °F 51% 29.98 in - ESE 13.8 mph - N/A   Unknown
11:00 AM 84.2 °F 85.0 °F 62.6 °F 48% 29.95 in - ESE 13.8 mph - N/A   Unknown
12:00 PM 87 °F - 60 °F 30% 29.92 in - SE 12.7 mph - -  
12:00 PM 87.8 °F 87.6 °F 60.8 °F 40% 29.92 in - SE 12.7 mph - N/A   Unknown
1:00 PM 89.6 °F 88.9 °F 59.0 °F 36% 29.89 in - SE 12.7 mph - N/A   Unknown
2:00 PM 89.6 °F 88.9 °F 59.0 °F 36% 29.86 in - ESE 9.2 mph - N/A   Unknown
3:00 PM 89 °F - 58 °F 25% 29.85 in - ESE 11.5 mph - -  
3:00 PM 89.6 °F 88.1 °F 57.2 °F 33% 29.86 in - ESE 11.5 mph - N/A   Unknown
4:00 PM 89.6 °F 88.9 °F 59.0 °F 36% 29.86 in - ESE 10.4 mph - N/A   Unknown
5:00 PM 86.0 °F 84.9 °F 57.2 °F 37% 29.89 in - ESE 8.1 mph - N/A   Unknown
6:00 PM 82 °F - 57 °F 32% 29.89 in - SE 5.8 mph - -  
6:00 PM 82.4 °F 82.0 °F 57.2 °F 42% 29.89 in - SE 5.8 mph - N/A   Unknown
7:00 PM 78.8 °F - 57.2 °F 47% 29.92 in - SE 4.6 mph - N/A   Unknown
8:00 PM 78.8 °F - 57.2 °F 47% 29.92 in - SSE 6.9 mph - N/A   Unknown
9:00 PM 76 °F - 57 °F 42% 29.92 in - SE 5.8 mph - -  
9:00 PM 77.0 °F - 57.2 °F 50% 29.92 in - SE 5.8 mph - N/A   Unknown
10:00 PM 77.0 °F - 57.2 °F 50% 29.92 in - ESE 8.1 mph - N/A   Unknown
11:00 PM 77.0 °F - 55.4 °F 47% 29.92 in - ESE 8.1 mph - N/A   Unknown